Home > Weather > Arequipa > Past weeks

Flag for Peru Weather for the Past 2 Weeks in Arequipa, Arequipa, Peru

Now
63 °F

Clear.


Feels Like: 63 °F
Forecast: 54 / 72 °F
Wind: 2 mph from North

Location: Arequipa Airport

Current Time: Feb 9, 2016 at 9:43:42 PM

Latest Report: Feb 9, 2016 at 9:00 PM


Visibility: 10 mi

Pressure: 30.36 "Hg (23.03 "Hg at 2345m altitude)

Humidity: 68%

Dew point: 52 °F

Location of ArequipaLocation

Historic Weather in Arequipa — Graph

°F

Arequipa Temperature Yesterday

Maximum temperature yesterday: 75 °F (at 11:00 AM)
Minimum temperature yesterday: 55 °F (at 5:00 AM)
Average temperature yesterday: 64 °F

High & Low Weather Summary for the Past Weeks

 TemperatureHumidityPressure
High79 °F (Feb 4, 11:00 AM)88% (Jan 25, 9:00 PM)30.39 "Hg (Jan 25, 9:00 PM)
Low50 °F (Jan 31, 3:00 AM)28% (Feb 4, 11:00 AM)30.21 "Hg (Feb 3, 3:00 AM)
Average61 °F63%30.30 "Hg
* Reported Jan 25 8:00 PM — Feb 9 8:00 PM, Arequipa, Weather by CustomWeather, © 2016

Note: Actual official high and low records may vary slightly from our data, if they occured in-between our weather recording intervals... More about our weather records

Advertising

Arequipa Weather History for the Previous 24 Hours

 ConditionsComfort  
Time TempWeatherWind HumidityBarometerVisibility
8:00 PM
Tue, Feb 9
61 °FPassing clouds.3 mph72%30.33 "HgN/A
7:00 PM63 °FPassing clouds.3 mph73%30.33 "HgN/A
6:00 PM61 °FBroken clouds.5 mph72%30.30 "HgN/A
5:00 PM63 °FPartly sunny.9 mph68%30.30 "HgN/A
4:00 PM66 °FBroken clouds.13 mph64%30.30 "HgN/A
3:00 PM68 °FBroken clouds.15 mph53%30.27 "HgN/A
2:00 PM73 °FPartly sunny.14 mph41%30.27 "HgN/A
1:00 PM73 °FPassing clouds.13 mph38%30.27 "HgN/A
12:00 PM72 °FPassing clouds.15 mph44%30.30 "HgN/A
11:00 AM73 °FPassing clouds.12 mph38%30.33 "HgN/A
10:00 AM73 °FPassing clouds.9 mph36%30.33 "HgN/A
9:00 AM73 °FPassing clouds.6 mph31%30.33 "HgN/A
8:00 AM68 °FPassing clouds.5 mph46%30.33 "HgN/A
7:00 AM64 °FSunny.2 mph56%30.30 "Hg10 mi
6:00 AM59 °FSunny.3 mph63%30.30 "Hg10 mi
5:00 AM57 °FClear.2 mph72%30.27 "Hg10 mi
4:00 AM59 °FClear.6 mph68%30.27 "Hg10 mi
3:00 AM59 °FClear.No wind72%30.27 "Hg10 mi
2:00 AM61 °FClear.2 mph59%30.30 "Hg10 mi
1:00 AM61 °FClear.5 mph55%30.30 "Hg10 mi
12:00 AM61 °FClear.No wind72%30.33 "Hg10 mi
11:00 PM
Mon, Feb 8
63 °FClear.3 mph73%30.33 "Hg10 mi
10:00 PM63 °FClear.2 mph73%30.36 "Hg10 mi
9:00 PM61 °FPassing clouds.No wind77%30.33 "HgN/A
Weather by CustomWeather, © 2016

See weather overviewHow to use our weather pages